TimeEDT,TemperatureF,Dew PointF,Humidity,Sea Level PressureIn,VisibilityMPH,Wind Direction,Wind SpeedMPH,Gust SpeedMPH,PrecipitationIn,Events,Conditions,WindDirDegrees,DateUTC
12:53 AM,75.9,75.0,97,30.00,10.0,North,4.6,-,N/A,,Clear,360,2013-09-07 04:53:00
1:53 AM,75.9,73.9,94,29.99,10.0,NNW,4.6,-,N/A,,Partly Cloudy,330,2013-09-07 05:53:00
2:53 AM,75.9,73.9,94,29.99,10.0,West,3.5,-,N/A,,Clear,260,2013-09-07 06:53:00
3:53 AM,73.9,73.0,97,29.99,10.0,WNW,5.8,-,N/A,,Clear,300,2013-09-07 07:53:00
4:53 AM,73.9,73.0,97,29.97,10.0,NNW,5.8,-,N/A,,Clear,330,2013-09-07 08:53:00
5:53 AM,73.9,73.0,97,29.97,10.0,NW,3.5,-,N/A,,Clear,310,2013-09-07 09:53:00
6:53 AM,75.0,73.9,96,29.97,10.0,WNW,3.5,-,N/A,,Clear,290,2013-09-07 10:53:00
7:53 AM,75.0,73.9,96,29.99,10.0,WNW,3.5,-,N/A,,Scattered Clouds,290,2013-09-07 11:53:00
8:53 AM,77.0,75.0,94,29.99,10.0,NW,6.9,-,N/A,,Scattered Clouds,320,2013-09-07 12:53:00
9:53 AM,80.1,75.9,87,30.00,10.0,WNW,3.5,-,N/A,,Partly Cloudy,300,2013-09-07 13:53:00
10:03 AM,80.6,75.2,84,30.01,10.0,NNW,3.5,-,N/A,,Mostly Cloudy,340,2013-09-07 14:03:00
10:43 AM,84.2,75.2,74,30.01,10.0,NNW,4.6,-,N/A,,Scattered Clouds,340,2013-09-07 14:43:00
10:53 AM,84.9,75.9,74,30.01,10.0,North,5.8,-,N/A,,Scattered Clouds,350,2013-09-07 14:53:00
11:53 AM,87.1,75.0,67,30.01,10.0,ENE,8.1,-,N/A,,Scattered Clouds,70,2013-09-07 15:53:00
12:53 PM,87.1,73.0,63,30.00,10.0,East,6.9,-,N/A,,Scattered Clouds,80,2013-09-07 16:53:00
1:53 PM,89.1,73.0,59,29.99,10.0,ENE,10.4,-,N/A,,Scattered Clouds,70,2013-09-07 17:53:00
2:53 PM,86.0,71.1,61,29.96,10.0,NE,8.1,-,N/A,,Scattered Clouds,50,2013-09-07 18:53:00
3:17 PM,84.2,71.6,66,29.96,10.0,ENE,8.1,-,N/A,Thunderstorm,Scattered Clouds,60,2013-09-07 19:17:00
3:53 PM,84.2,71.6,66,29.97,10.0,NE,6.9,-,N/A,Thunderstorm,Scattered Clouds,40,2013-09-07 19:53:00
4:03 PM,84.2,71.6,66,29.96,10.0,NE,6.9,-,N/A,,Partly Cloudy,50,2013-09-07 20:03:00
4:53 PM,86.0,71.1,61,29.94,10.0,ENE,8.1,-,N/A,,Partly Cloudy,70,2013-09-07 20:53:00
5:53 PM,84.0,72.0,67,29.94,10.0,NE,9.2,-,N/A,,Clear,40,2013-09-07 21:53:00
6:53 PM,82.9,70.0,65,29.94,10.0,NE,8.1,-,N/A,,Clear,50,2013-09-07 22:53:00
7:53 PM,82.0,73.9,76,29.95,10.0,NNE,9.2,-,N/A,,Partly Cloudy,20,2013-09-07 23:53:00
8:53 PM,82.0,73.0,74,29.96,10.0,NNE,8.1,-,N/A,,Partly Cloudy,20,2013-09-08 00:53:00
9:53 PM,81.0,72.0,74,29.97,10.0,North,9.2,-,N/A,,Clear,10,2013-09-08 01:53:00
10:53 PM,80.1,73.0,79,29.96,10.0,North,4.6,-,N/A,,Clear,360,2013-09-08 02:53:00
11:53 PM,80.1,73.0,79,29.96,10.0,North,5.8,-,N/A,,Clear,360,2013-09-08 03:53:00